sat.trackr.live / text

‹ back to catalog

STARLINK-31734

NORAD 59534 · 2024-074A

PAYLOAD ACTIVE UNKNOWN

§ Identity

Operator
Country
US
Launch date
2024-04-18
Launch site
AFETR
Launch vehicle
Mass (kg)
RCS (m²)

Purposes: comms

External: N2YO · Heavens-Above · Gunter

§ Orbital elements

Epoch: 2026-05-25T00:25:32.168352Z

Period
94.27 min
Inclination
42.9986°
Eccentricity
0.0000730
Mean motion
15.27574247 rev/d
Perigee alt
482.6 km
Apogee alt
483.6 km
Semi-major
6,861.2 km
B*
8.8116e-5
RAAN
261.5662°
Arg perigee
308.6481°
Mean anomaly
51.4306°
Rev number
11,781

§ Raw data

STARLINK-317341 59534U 24074A   26145.01773343  .00002163  00000+0  88116-4 0  99982 59534  42.9986 261.5662 0000730 308.6481  51.4306 15.27574247117815

JSON: /api/v1/satellites/59534 · /tle

For live sub-satellite position, see the globe view (requires WebGL).

§ Visibility from observer

Set your observer location to see the next 7 days of passes ≥ 10°. The values pass through the URL so the page stays shareable.

No JS? Fill the form by hand. The geolocation button needs JavaScript.